[[{"header":{"parameterUnit":"m.s-1","parameterCategory":1,"la1":30.2991,"la2":30.254,"lo1":-89.0895,"lo2":-89.0444,"dx":0.0017,"dy":0.0017,"nx":28,"ny":28,"refTime":"2022-12-30T15:00:00:Z","depth":0,"parameterNumber":2,"parameterNumberName":"U-component_of_WINDS"},"data":[0,0,0,0,0,0,0,0,0,0,0,0,0,0,0,0,0,0,0,0,0,0,0,0,0,0,0,0,0,0,0,0,0,0,0,0,0,0,0,0,0,0,0,0,0,0,0,0,0,0,0,0,0,0,0,0,0,0,-0.914,-0.914,0,-0.9093,-0.9093,-0.9092,-0.904,-0.9039,-0.9038,-0.9038,-0.8988,-0.8988,-0.8987,0,0,0,0,0,0,0,0,0,0,0,0,0,-0.9185,-0.9185,-0.914,-0.914,-0.9139,-0.9093,-0.9093,-0.9092,-0.904,-0.9039,-0.9038,-0.9037,-0.8989,-0.8988,-0.8987,0,0,0,0,0,0,0,0,0,0,0,0,0,-0.9155,-0.9184,-0.9141,-0.9108,-0.9104,-0.9093,-0.9093,-0.9092,-0.904,-0.9039,-0.9038,-0.9037,-0.8989,-0.8988,-0.8987,-0.9004,0,0,-0.8984,-0.8984,0,0,0,0,0,0,0,0,-0.9156,-0.9153,-0.9113,-0.911,-0.9106,-0.9071,-0.909,-0.9062,-0.904,-0.9065,-0.9038,-0.9036,-0.9017,-0.9014,-0.9007,-0.9002,-0.9,-0.8984,-0.8984,-0.8983,-0.8983,0,0,0,0,0,0,0,-0.9159,-0.9155,-0.9122,-0.9113,-0.9108,-0.9095,-0.909,-0.9085,-0.9048,-0.9062,-0.9058,-0.9054,-0.9015,-0.9008,-0.9006,-0.8999,-0.8984,-0.8984,-0.8983,-0.8983,-0.9006,-0.9007,0,0,0,0,0,0,-0.9166,-0.9157,-0.9123,-0.912,-0.9129,-0.9095,-0.9089,-0.9084,-0.9048,-0.9041,-0.9055,-0.9051,-0.901,-0.9007,-0.9004,-0.9022,-0.8983,-0.8983,-0.8982,-0.9005,-0.9007,-0.9008,0,0,0,0,0,0,-0.9167,-0.9163,-0.9125,-0.9137,-0.9132,-0.9096,-0.909,-0.9083,-0.9077,-0.9042,-0.9035,-0.9055,-0.9009,-0.9005,-0.9005,-0.902,-0.8982,-0.8981,-0.9004,-0.9006,-0.9007,-0.9059,0,0,0,0,0,0,-0.9168,-0.9164,-0.917,-0.9138,-0.9131,-0.9127,-0.9091,-0.9083,-0.9075,-0.9071,-0.904,-0.9034,-0.9008,-0.9006,-0.9004,-0.9018,-0.8981,-0.9002,-0.9005,-0.9007,-0.9055,-0.9062,-0.9067,0,0,0,0,0,-0.917,-0.9186,-0.9171,-0.9167,-0.9138,-0.9128,-0.9124,-0.9094,-0.9077,-0.9083,-0.906,-0.9035,-0.9018,-0.9007,-0.9004,-0.9017,-0.9001,-0.9004,-0.9007,-0.9053,-0.9061,-0.9067,0,0,0,0,0,0,-0.9221,-0.9181,-0.9164,-0.917,-0.9153,-0.9119,-0.9126,-0.9104,-0.9091,-0.9087,-0.905,-0.9044,-0.9048,-0.9032,-0.902,-0.9032,-0.9006,-0.9008,-0.9042,-0.905,-0.9056,-0.9059,-0.898,0,0,0,0,0,-0.9233,-0.9228,-0.9194,-0.9202,-0.9195,-0.9162,-0.9156,-0.9135,-0.9116,-0.9108,-0.9086,-0.9068,-0.9058,-0.9053,-0.9042,-0.9053,-0.9046,-0.9061,-0.9067,-0.9072,-0.9074,-0.9079,-0.9085,-0.9017,-0.9017,-0.9016,0,0,-0.9257,-0.9235,-0.9234,-0.9212,-0.9196,-0.9192,-0.9156,-0.9153,-0.915,-0.9107,-0.9106,-0.9089,-0.9067,-0.9072,-0.9073,-0.9059,-0.9092,-0.9075,-0.9079,-0.9079,-0.9082,-0.9089,-0.9095,-0.9018,-0.9018,-0.9018,0,0,-0.93,-0.9282,-0.9288,-0.9273,-0.925,-0.9228,-0.923,-0.92,-0.9187,-0.9185,-0.9153,-0.9148,-0.9133,-0.9119,-0.9109,-0.9147,-0.9123,-0.9145,-0.9176,-0.9181,-0.9187,-0.9191,-0.9205,-0.9211,-0.9147,-0.9147,-0.9147,0,-0.9333,-0.9326,-0.9294,-0.9293,-0.9284,-0.9246,-0.9252,-0.9239,-0.9213,-0.9208,-0.9193,-0.9173,-0.9155,-0.9157,-0.9166,-0.916,-0.9161,-0.9148,-0.9189,-0.9193,-0.9197,-0.921,-0.9215,-0.915,-0.915,-0.9149,-0.9149,0,-0.9368,-0.9364,-0.9371,-0.9348,-0.934,-0.9342,-0.9311,-0.9307,-0.9286,-0.9266,-0.9265,-0.9242,-0.9227,-0.9225,-0.9205,-0.9224,-0.9216,-0.9195,-0.9168,-0.9207,-0.9218,-0.9223,-0.9154,-0.9153,-0.9152,-0.9151,0,0,-0.9441,-0.9401,-0.9404,-0.9393,-0.9365,-0.9361,-0.9362,-0.9347,-0.9344,-0.9328,-0.9328,-0.9316,-0.9297,-0.9286,-0.9264,-0.9268,-0.9301,-0.9247,-0.9246,-0.9258,-0.9321,-0.9338,-0.9344,-0.9284,-0.9285,-0.9286,-0.9323,0,-0.9479,-0.9478,-0.945,-0.9457,-0.9453,-0.9417,-0.9418,-0.9401,-0.9382,-0.9375,-0.9354,-0.9347,-0.9322,-0.9315,-0.9318,-0.9296,-0.9313,-0.9293,-0.9284,-0.9284,-0.9292,-0.935,-0.9367,-0.9403,-0.9327,-0.9328,-0.9329,0,-0.9523,-0.951,-0.9517,-0.949,-0.9487,-0.9488,-0.9472,-0.9467,-0.9446,-0.9432,-0.9421,-0.9396,-0.9395,-0.9369,-0.9367,-0.9354,-0.9349,-0.9338,-0.9339,-0.9337,-0.9309,-0.935,-0.9414,-0.942,-0.9335,-0.9335,-0.9334,0,-0.9576,-0.9561,-0.9563,-0.9555,-0.9522,-0.9524,-0.9511,-0.9489,-0.9482,-0.9469,-0.9464,-0.945,-0.9443,-0.9433,-0.9405,-0.9389,-0.9406,-0.9378,-0.9395,-0.9396,-0.94,-0.9401,-0.9465,-0.9396,-0.9396,-0.9396,-0.9396,0,-0.9622,-0.9628,-0.9587,-0.9588,-0.9594,-0.9561,-0.9568,-0.9551,-0.9532,-0.953,-0.9497,-0.9496,-0.9458,-0.9453,-0.943,-0.9432,-0.9429,-0.9418,-0.9412,-0.9421,-0.9423,-0.9417,-0.9414,-0.9398,-0.9397,-0.9397,-0.9397,0,-0.9683,-0.9655,-0.9656,-0.9625,-0.9617,-0.9623,-0.9597,-0.9597,-0.9576,-0.9574,-0.9571,-0.9539,-0.953,-0.9501,-0.9485,-0.947,-0.948,-0.9468,-0.9487,-0.9483,-0.9502,-0.9501,-0.9565,-0.9572,-0.9499,-0.95,-0.95,0,-0.9714,-0.9718,-0.9688,-0.9684,-0.9672,-0.9666,-0.9659,-0.9627,-0.9621,-0.9599,-0.9602,-0.9591,-0.9581,-0.9569,-0.9544,-0.9532,-0.952,-0.9543,-0.9518,-0.9527,-0.9521,-0.9521,-0.9522,-0.9549,-0.955,-0.9551,-0.9551,0,-0.9772,-0.9759,-0.975,-0.9737,-0.973,-0.9718,-0.9704,-0.9703,-0.9667,-0.9662,-0.9653,-0.9645,-0.9629,-0.9619,-0.9603,-0.9589,-0.9564,-0.956,-0.9563,-0.9573,-0.9584,-0.9579,-0.9502,-0.9558,-0.9558,-0.9557,-0.9557,-0.9557,-0.9819,-0.9821,-0.9801,-0.9793,-0.9779,-0.9767,-0.9766,-0.9745,-0.9738,-0.9723,-0.9704,-0.9698,-0.9678,-0.9654,-0.9641,-0.9636,-0.9622,-0.9627,-0.9628,-0.963,-0.9635,-0.9584,-0.9633,-0.9632,-0.9632,-0.9632,-0.9632,0,-0.9877,-0.9862,-0.9855,-0.9837,-0.983,-0.9808,-0.9792,-0.9788,-0.9783,-0.9766,-0.9757,-0.9747,-0.9737,-0.9712,-0.9699,-0.97,-0.9688,-0.9698,-0.9698,-0.9695,-0.9647,-0.9646,-0.9707,-0.9707,-0.9707,-0.9707,-0.9707,-0.9707,-0.9906,-0.9908,-0.9893,-0.9888,-0.9873,-0.9867,-0.986,-0.9848,-0.9835,-0.9826,-0.9818,-0.9801,-0.9781,-0.9767,-0.9757,-0.9749,-0.9747,-0.976,-0.9749,-0.9705,-0.9698,-0.9691,-0.969,-0.9759,-0.9759,-0.9797,-0.9797,-0.9798]},{"header":{"parameterUnit":"m.s-1","parameterCategory":1,"la1":30.2991,"la2":30.254,"lo1":-89.0895,"lo2":-89.0444,"dx":0.0017,"dy":0.0017,"nx":28,"ny":28,"refTime":"2022-12-30T15:00:00:Z","depth":0,"parameterNumber":3,"parameterNumberName":"V-component_of_WINDS"},"data":[0,0,0,0,0,0,0,0,0,0,0,0,0,0,0,0,0,0,0,0,0,0,0,0,0,0,0,0,0,0,0,0,0,0,0,0,0,0,0,0,0,0,0,0,0,0,0,0,0,0,0,0,0,0,0,0,0,0,0.5119,0.5118,0,0.5085,0.5084,0.5084,0.5072,0.5072,0.5072,0.5072,0.5035,0.5034,0.5033,0,0,0,0,0,0,0,0,0,0,0,0,0,0.5173,0.5172,0.5119,0.5118,0.5118,0.5085,0.5084,0.5084,0.5072,0.5072,0.5072,0.5072,0.5035,0.5034,0.5033,0,0,0,0,0,0,0,0,0,0,0,0,0,0.5145,0.5171,0.5119,0.5108,0.5107,0.5085,0.5084,0.5084,0.5072,0.5072,0.5072,0.5072,0.5036,0.5034,0.5033,0.5018,0,0,0.5027,0.5027,0,0,0,0,0,0,0,0,0.5146,0.5143,0.511,0.5109,0.5107,0.5083,0.5089,0.5062,0.5072,0.5085,0.5072,0.5072,0.5051,0.5048,0.5041,0.5016,0.5015,0.5027,0.5026,0.5026,0.5025,0,0,0,0,0,0,0,0.5148,0.5144,0.5105,0.511,0.5108,0.5104,0.5101,0.5084,0.5067,0.5084,0.5083,0.5079,0.505,0.5042,0.504,0.5014,0.5027,0.5026,0.5025,0.5024,0.4977,0.4977,0,0,0,0,0,0,0.5152,0.5146,0.5106,0.5104,0.5128,0.5103,0.5099,0.509,0.5067,0.5064,0.5079,0.5079,0.5045,0.5042,0.5038,0.5021,0.5026,0.5024,0.5023,0.4977,0.4977,0.4977,0,0,0,0,0,0,0.5153,0.5149,0.5108,0.5125,0.5119,0.5102,0.5092,0.5089,0.5082,0.5063,0.506,0.5075,0.5045,0.5041,0.5024,0.5019,0.5023,0.5022,0.4978,0.4977,0.4977,0.4984,0,0,0,0,0,0,0.5155,0.5149,0.5144,0.5125,0.5118,0.5094,0.5092,0.5089,0.5079,0.5079,0.5059,0.5055,0.5045,0.5026,0.5022,0.5017,0.502,0.4978,0.4977,0.4977,0.4985,0.4984,0.4984,0,0,0,0,0,0.5157,0.5147,0.5144,0.5139,0.5112,0.5094,0.509,0.5079,0.5079,0.5074,0.5062,0.5056,0.502,0.5025,0.502,0.5014,0.4978,0.4978,0.4977,0.4985,0.4984,0.4984,0,0,0,0,0,0,0.5165,0.5144,0.5141,0.5124,0.5111,0.5092,0.5084,0.5079,0.5065,0.5065,0.5051,0.5046,0.503,0.502,0.5025,0.4999,0.4999,0.4997,0.5006,0.5006,0.5006,0.5009,0.5019,0,0,0,0,0,0.5165,0.5153,0.5135,0.5122,0.5116,0.5101,0.5093,0.5086,0.5071,0.5065,0.5052,0.5038,0.5023,0.5014,0.5,0.4983,0.4979,0.4977,0.4977,0.4977,0.4975,0.4966,0.4965,0.4975,0.4975,0.4975,0,0,0.5165,0.5152,0.5145,0.5124,0.5113,0.51,0.5097,0.5083,0.5073,0.5063,0.5046,0.5036,0.5019,0.5003,0.4994,0.4994,0.4972,0.4976,0.4976,0.4975,0.4966,0.4965,0.4964,0.4975,0.4975,0.4975,0,0,0.5158,0.5147,0.5135,0.5125,0.5108,0.5099,0.5096,0.5078,0.5071,0.5054,0.5046,0.5034,0.5009,0.4998,0.4989,0.4978,0.4973,0.4974,0.4973,0.4964,0.4964,0.4963,0.4959,0.4958,0.4973,0.4973,0.4973,0,0.5159,0.5141,0.513,0.5117,0.5108,0.5099,0.5087,0.5077,0.5056,0.505,0.505,0.5019,0.5007,0.4988,0.4985,0.4978,0.4974,0.4976,0.4965,0.4964,0.4963,0.496,0.4958,0.4973,0.4973,0.4973,0.4973,0,0.5143,0.5131,0.5123,0.5105,0.5094,0.5082,0.5069,0.506,0.5054,0.5044,0.5027,0.5013,0.4996,0.499,0.4984,0.497,0.497,0.4968,0.4967,0.4963,0.4959,0.4958,0.4974,0.4973,0.4973,0.4973,0,0,0.514,0.5117,0.5114,0.5106,0.5087,0.5077,0.5064,0.5048,0.5041,0.5027,0.5016,0.4996,0.4993,0.4983,0.4975,0.4967,0.496,0.4966,0.4965,0.4965,0.4945,0.4947,0.4946,0.4957,0.4956,0.4956,0.4946,0,0.5131,0.5109,0.5099,0.5081,0.5069,0.506,0.5049,0.5037,0.5027,0.5015,0.5005,0.4991,0.4989,0.4983,0.4975,0.4963,0.4956,0.4964,0.4946,0.4945,0.4951,0.4944,0.4946,0.4938,0.4945,0.4945,0.4944,0,0.5117,0.5104,0.5086,0.5069,0.5064,0.5054,0.5039,0.5028,0.5013,0.5007,0.4996,0.4988,0.4975,0.4975,0.4956,0.4961,0.4953,0.4946,0.4946,0.4944,0.4945,0.4942,0.4934,0.4933,0.4942,0.4942,0.4942,0,0.5117,0.5095,0.5081,0.5074,0.5055,0.5048,0.504,0.5025,0.5017,0.5003,0.4997,0.4982,0.4974,0.4962,0.495,0.4952,0.4932,0.4932,0.4926,0.4927,0.4922,0.4923,0.4914,0.4917,0.4917,0.4917,0.4917,0,0.5108,0.5097,0.5081,0.5072,0.506,0.5048,0.5036,0.5026,0.5014,0.5003,0.4994,0.4984,0.497,0.4958,0.4949,0.4934,0.493,0.4925,0.4922,0.4925,0.4926,0.492,0.492,0.4917,0.4917,0.4917,0.4917,0,0.5106,0.5095,0.5079,0.5062,0.5058,0.5049,0.5034,0.5025,0.5016,0.5002,0.4999,0.4984,0.4969,0.4957,0.4937,0.4931,0.4916,0.4913,0.4921,0.492,0.4916,0.4916,0.4903,0.49,0.4905,0.4905,0.4905,0,0.51,0.5092,0.5074,0.5067,0.5059,0.5047,0.5038,0.5027,0.5018,0.5001,0.4994,0.4979,0.4967,0.4944,0.4931,0.4916,0.4913,0.4909,0.491,0.4914,0.4913,0.4914,0.4913,0.4909,0.4909,0.4909,0.4909,0,0.5093,0.5088,0.5076,0.5062,0.5053,0.5041,0.5029,0.5023,0.501,0.5,0.4986,0.4976,0.4957,0.4942,0.4926,0.4916,0.491,0.4909,0.4907,0.491,0.4915,0.4912,0.4921,0.4909,0.4909,0.4909,0.4909,0.4909,0.5089,0.5081,0.5068,0.5055,0.5045,0.5035,0.5026,0.5016,0.5004,0.4988,0.4981,0.4967,0.4953,0.493,0.4921,0.4909,0.4908,0.4905,0.4904,0.4904,0.4905,0.4917,0.4906,0.4906,0.4906,0.4906,0.4906,0,0.5081,0.5072,0.506,0.5045,0.5035,0.5031,0.5018,0.5009,0.4997,0.4985,0.4973,0.4956,0.4942,0.4928,0.4913,0.4906,0.4903,0.4903,0.4903,0.4901,0.4906,0.4909,0.4906,0.4906,0.4906,0.4906,0.4906,0.4906,0.5075,0.5062,0.5056,0.5038,0.5029,0.5015,0.5008,0.4998,0.4988,0.4971,0.4959,0.4951,0.4938,0.4922,0.4908,0.4905,0.4899,0.49,0.4895,0.49,0.4901,0.4901,0.4904,0.4899,0.4899,0.4891,0.4891,0.4891]}]]